Theta_e
313 314 315 315 314 313 313 313 312 312 312 312 313 313 314 314 314 320 324 324 338 334 355 350 350 352 351 342 343 347 352 355 356 357 358 355 357 358 357 359 357 355 356 353 354
313 313 313 314 313 312 312 312 312 312 312 312 312 313 314 314 323 322 322 318 326 333 347 343 343 342 340 337 339 345 353 349 348 353 355 354 354 357 359 358 362 361 357 355 353
312 312 311 312 313 312 312 312 312 312 312 312 312 313 314 314 326 325 323 320 325 335 339 336 335 338 336 334 337 342 343 341 346 349 351 354 354 352 354 360 358 363 362 358 355
313 310 310 311 313 312 312 312 312 312 311 312 313 314 315 326 330 328 322 320 328 341 334 331 335 335 337 337 335 342 339 338 342 345 349 355 353 353 353 353 350 358 360 358 358
313 310 309 311 312 312 312 312 312 311 311 312 313 314 323 322 322 324 322 322 342 329 331 329 332 337 338 335 334 338 338 337 338 339 350 353 353 353 350 354 353 358 360 360 358
311 311 309 311 312 312 312 312 311 311 312 312 313 315 324 321 322 335 338 340 339 327 327 327 332 333 335 333 334 334 335 343 347 348 353 355 354 353 355 354 359 359 360 359 355
311 310 310 311 311 312 312 312 311 312 312 313 314 318 322 322 325 326 334 336 336 330 328 327 326 329 333 334 332 334 338 340 346 352 354 353 353 355 358 358 360 358 358 358 355
309 309 310 310 311 312 311 312 313 313 313 313 314 325 321 317 321 322 323 324 324 326 324 324 325 328 331 332 335 337 339 341 342 342 349 351 350 350 357 359 360 358 358 358 357
308 308 310 311 311 311 312 314 314 314 313 314 323 323 321 319 320 321 322 323 324 325 325 324 326 331 333 338 339 338 340 339 339 341 339 342 342 342 353 355 360 360 359 358 359
307 308 310 311 311 312 317 316 315 319 318 322 324 324 320 322 322 323 322 322 324 325 325 326 329 335 338 339 343 340 339 338 339 335 331 332 332 331 340 350 355 361 359 359 359
307 309 310 311 311 315 320 323 328 328 326 328 322 320 322 324 325 324 322 323 324 324 326 329 335 339 337 337 339 340 341 339 337 332 330 331 331 333 335 343 351 357 361 360 360
306 308 311 311 313 319 319 327 326 324 327 325 325 325 324 324 325 324 322 324 324 325 325 327 334 334 334 336 337 339 340 339 336 332 329 331 332 333 339 343 346 350 358 361 360
305 307 310 311 316 320 324 325 322 323 328 325 325 325 324 324 325 324 323 324 323 324 325 326 328 330 331 334 334 334 337 337 336 330 332 330 334 336 337 346 349 349 351 357 360
306 307 310 311 321 322 325 322 322 322 330 326 325 325 325 326 325 325 322 323 322 323 323 323 323 327 328 330 331 331 331 333 328 330 337 328 334 335 335 335 344 344 348 351 355
306 308 310 311 318 325 324 322 322 323 328 326 325 324 327 327 325 325 322 323 323 321 322 321 322 323 325 327 326 327 328 329 327 329 333 334 334 336 333 336 336 339 342 346 351
307 309 311 315 317 322 321 321 322 327 330 327 326 326 326 324 324 323 323 323 323 322 322 322 322 323 323 324 325 325 325 325 326 329 334 333 333 333 332 334 335 333 339 346 349
308 315 315 315 322 320 321 324 328 327 328 327 327 327 325 324 324 324 324 324 323 323 323 323 322 322 322 323 324 324 325 326 328 331 333 331 330 330 331 330 331 332 343 346 350
318 318 319 317 318 320 323 326 328 329 330 328 325 326 327 324 324 324 324 325 324 323 323 323 324 323 323 322 324 324 325 326 330 332 333 329 328 329 328 329 329 342 342 345 349
319 320 323 323 321 321 327 322 330 330 329 328 325 327 326 325 326 324 325 325 325 324 324 325 325 323 323 323 323 323 324 326 326 327 328 328 328 328 328 329 331 333 330 336 347
324 326 324 320 320 323 327 322 330 329 329 329 328 327 328 326 326 326 327 328 329 326 325 327 326 325 323 323 323 324 325 325 326 328 330 328 328 329 328 330 329 329 330 333 336
327 330 325 322 321 325 322 325 329 329 328 332 330 328 328 328 328 326 328 328 333 331 328 327 327 327 325 325 325 323 324 324 325 327 328 329 328 329 331 331 332 332 335 335 339
331 333 324 323 328 327 324 329 321 330 329 331 331 329 329 329 329 328 329 331 335 333 332 329 327 328 328 326 325 326 326 326 325 326 326 326 328 330 332 335 337 338 339 340 339
334 331 325 325 331 328 329 327 329 329 329 330 330 329 329 331 331 329 327 330 332 334 336 332 330 330 330 327 325 325 326 326 325 326 327 328 327 329 331 334 337 338 340 340 342
334 335 332 330 330 330 328 328 328 326 327 327 330 330 331 331 331 331 330 332 333 335 331 327 331 331 332 333 332 329 327 326 326 326 326 328 327 329 330 333 335 337 339 342 344
328 332 326 333 332 331 329 329 330 329 327 327 329 329 332 332 331 331 331 331 332 339 336 334 333 334 334 332 334 334 331 330 327 327 328 328 328 328 330 335 339 338 339 343 344
329 329 325 328 326 328 322 331 331 329 329 329 329 327 328 331 331 332 330 330 332 335 335 334 335 334 336 332 335 335 335 334 333 332 331 332 330 330 331 337 338 340 339 342 343
320 320 322 316 324 326 326 327 326 323 325 326 326 327 328 328 327 326 326 327 328 329 330 331 334 336 337 333 333 335 333 334 335 334 333 334 332 333 335 337 340 339 338 340 342
Wind_Speed
12 13 13 13 11 11 10 9 9 9 10 10 10 12 12 13 10 5 4 2 7 19 15 9 7 6 6 4 4 4 4 6 9 8 8 4 3 3 1 7 1 5 3 20 27
13 13 13 13 11 10 9 9 9 10 9 10 11 12 12 14 6 7 3 5 9 19 15 11 6 6 3 2 1 3 3 7 7 6 7 5 1 6 4 5 7 8 13 26 29
14 14 13 12 10 9 8 9 10 9 10 11 11 11 11 10 6 6 2 9 14 17 7 5 4 6 5 2 2 2 5 8 5 6 8 6 1 2 2 3 5 12 18 22 26
15 14 13 11 10 9 9 9 9 11 11 11 11 10 10 3 3 5 0 11 18 13 9 6 5 3 4 5 3 4 1 8 7 4 5 4 2 1 4 2 4 12 19 21 21
14 14 12 10 10 10 10 10 9 10 11 10 9 9 4 6 3 4 4 17 19 10 12 7 7 5 4 5 6 6 9 10 9 7 2 2 0 2 2 1 5 17 19 21 20
14 13 12 10 10 10 10 11 11 10 9 9 7 6 5 7 3 4 11 20 15 12 9 8 4 5 6 4 5 12 11 7 4 3 2 4 0 3 4 6 12 16 19 19 19
13 12 11 11 10 10 11 13 12 9 8 7 4 3 6 4 4 6 11 15 13 11 7 6 6 8 7 5 4 9 8 3 11 5 4 8 5 4 10 12 14 15 16 18 18
12 11 10 11 11 12 13 12 11 9 6 2 1 2 2 2 4 2 7 10 8 11 6 5 5 9 7 5 6 6 7 3 8 8 4 6 3 6 11 13 15 16 16 17 18
12 11 10 10 12 14 13 10 4 1 2 2 1 5 4 3 6 7 9 6 9 7 5 4 5 7 6 10 9 5 3 5 2 5 7 5 10 5 9 12 12 15 17 18 17
12 11 10 11 12 13 6 4 6 5 1 0 3 5 5 4 5 6 9 7 8 8 6 8 6 9 10 10 10 3 8 4 6 9 9 11 12 8 9 13 12 15 17 18 20
11 11 11 11 13 5 7 1 5 5 7 5 3 3 4 1 4 8 10 12 9 10 12 11 10 13 16 13 11 9 10 10 8 5 12 9 13 10 3 14 13 16 17 20 22
12 11 10 11 9 2 4 3 5 5 3 4 7 7 7 3 5 10 11 12 10 13 7 7 15 16 7 9 12 16 14 15 6 6 9 13 14 7 3 5 11 15 18 20 20
12 11 10 10 1 2 1 3 3 2 5 5 2 3 2 7 3 12 14 13 11 15 12 15 3 4 10 14 14 17 18 15 11 10 10 8 15 6 3 3 6 10 13 18 20
13 12 9 7 3 2 2 1 6 5 6 6 5 5 7 4 6 3 11 9 7 12 14 11 15 7 11 13 15 17 11 9 10 10 9 1 11 7 3 6 8 5 9 15 20
13 11 7 4 3 4 3 6 2 4 6 4 6 4 5 6 10 7 8 8 11 11 8 11 9 12 18 18 8 14 6 11 10 12 11 14 8 10 7 12 5 6 4 9 15
13 10 5 2 3 2 4 3 5 6 3 6 5 8 12 7 6 7 10 5 2 5 10 13 2 7 10 9 14 10 8 11 10 11 12 18 7 11 9 9 10 11 6 3 11
11 6 4 4 2 2 5 5 6 5 4 8 7 9 12 9 9 10 13 14 9 10 13 13 15 14 8 9 8 10 13 10 11 12 12 2 5 11 12 14 10 14 7 2 7
3 1 1 5 4 4 6 6 6 2 2 4 4 8 9 10 9 9 7 11 10 9 1 5 8 13 14 19 13 14 16 11 11 11 11 7 8 9 9 9 11 5 4 3 5
5 3 2 1 4 3 6 7 2 3 1 3 9 11 8 8 4 10 10 5 5 12 7 4 5 5 5 8 13 15 12 18 18 10 9 9 7 9 15 6 4 6 8 6 1
3 5 4 2 0 7 7 1 3 1 1 4 6 5 8 10 9 8 9 5 5 4 11 3 7 9 4 7 7 14 9 9 11 15 15 9 7 9 6 6 4 6 8 9 7
4 3 3 1 3 6 5 3 3 2 2 3 3 5 4 6 5 6 7 7 1 5 5 9 8 7 7 11 10 9 12 10 12 7 11 12 10 1 2 4 8 9 9 9 10
4 3 4 3 5 2 5 1 1 1 1 3 3 2 4 3 6 5 6 2 2 2 3 2 6 9 11 6 3 10 10 14 10 16 11 12 9 7 4 4 6 8 9 10 9
1 3 3 4 3 4 4 4 1 1 2 2 5 2 1 3 3 3 3 5 2 3 4 2 6 9 12 10 10 10 13 12 14 12 13 10 11 8 4 1 6 9 10 10 9
3 4 4 2 1 2 4 4 5 2 1 1 1 4 5 5 3 1 6 4 1 1 2 2 12 11 13 13 7 5 9 10 17 14 15 13 17 9 5 2 5 9 11 12 11
2 2 4 4 4 2 3 1 3 4 1 1 4 2 4 6 7 7 5 5 8 6 4 6 12 8 13 8 9 11 11 9 13 17 16 11 16 12 2 5 5 6 9 10 12
2 2 3 2 2 4 4 5 4 2 2 5 2 1 2 7 5 4 4 4 6 2 9 9 11 9 14 15 10 14 13 12 14 15 14 16 19 10 6 5 6 8 10 9 10
3 0 4 4 4 5 3 3 1 1 3 5 2 6 6 2 4 6 8 10 10 10 11 11 12 12 15 14 14 18 17 19 18 18 17 17 17 13 6 3 8 11 12 9 10
Wind_Direction
342 339 338 339 345 344 351 349 349 347 345 345 341 337 335 331 317 299 250 123 171 162 152 161 191 201 229 294 275 279 278 46 39 17 69 142 115 109 137 140 183 154 137 132 155
342 336 338 336 340 342 344 342 341 340 344 342 339 336 334 333 307 248 266 190 177 162 168 176 177 204 257 287 248 312 343 6 344 347 5 91 247 128 175 154 131 123 105 136 153
338 334 333 336 334 338 338 339 336 339 338 337 337 335 334 333 257 97 103 169 178 159 183 218 233 247 296 304 49 16 9 340 334 346 340 355 221 199 241 180 171 166 147 150 158
335 332 331 328 333 339 337 334 332 330 332 332 335 336 330 285 185 98 100 168 169 171 185 202 208 241 304 345 38 297 331 323 317 3 325 0 21 239 260 52 30 152 160 159 171
333 330 329 329 333 337 332 326 324 321 323 326 333 341 327 221 84 3 262 164 169 195 200 219 235 282 341 330 327 289 339 328 315 288 301 190 3 312 286 222 140 142 160 172 177
332 330 332 334 334 331 325 316 312 312 313 318 331 343 276 227 39 34 143 164 184 197 217 238 325 341 300 323 311 328 319 353 15 54 104 303 342 237 161 152 142 157 170 176 179
332 337 341 336 329 324 318 312 307 304 301 308 331 2 257 14 116 94 143 176 196 208 247 255 295 281 342 292 322 302 299 122 41 22 24 320 220 202 137 162 161 170 173 179 182
336 341 339 334 326 322 318 310 304 294 281 278 352 292 292 136 187 226 170 185 202 214 258 298 284 280 265 317 251 288 245 344 53 17 47 307 63 72 161 173 174 175 177 185 190
336 337 336 331 328 325 317 311 301 263 161 126 292 274 141 155 211 207 195 193 184 196 224 287 249 270 255 255 264 221 331 350 85 35 348 333 317 61 179 192 185 187 183 188 192
337 334 332 331 328 328 329 122 112 87 100 184 251 242 194 144 151 168 192 196 179 178 191 214 227 238 231 247 246 237 280 305 333 341 323 305 297 309 195 218 201 195 196 192 196
336 331 329 329 331 351 121 139 206 174 213 314 72 341 125 358 180 194 179 189 195 206 216 206 227 227 242 241 290 286 278 284 307 334 321 318 311 313 274 207 214 197 204 201 203
334 325 327 329 337 96 161 268 37 358 244 224 256 267 256 281 192 177 181 198 202 219 207 212 234 249 274 288 259 267 271 271 306 289 313 317 309 314 331 229 221 216 201 207 203
327 322 326 332 304 92 258 84 342 277 252 141 192 237 175 205 208 166 198 204 211 223 217 247 272 305 236 244 252 256 261 272 284 303 277 290 283 258 127 240 239 233 223 203 206
318 320 325 340 159 184 182 312 312 198 229 123 160 128 173 230 179 130 205 206 211 241 232 251 258 226 233 246 252 261 255 254 266 269 269 4 285 261 299 289 188 247 220 222 205
317 316 317 313 311 219 99 330 176 214 200 129 116 112 161 231 123 160 177 198 223 198 217 231 216 228 240 247 233 263 267 249 270 262 264 243 255 273 269 280 269 72 337 231 214
313 304 303 312 233 254 320 306 215 229 136 132 129 163 178 186 166 134 179 221 337 216 226 266 163 252 258 265 244 265 232 231 236 251 248 254 262 279 280 312 322 320 4 284 212
308 287 240 214 82 294 297 219 223 270 157 149 137 174 192 169 160 169 181 193 202 209 217 218 230 228 231 238 191 221 241 242 220 224 242 147 248 264 308 290 330 316 344 219 206
304 195 205 200 269 311 229 227 241 106 129 138 172 176 186 163 211 201 210 214 214 258 245 246 193 203 206 230 237 210 242 249 244 248 245 138 251 252 309 310 304 304 25 340 199
135 127 180 270 238 244 237 222 106 151 102 169 164 183 158 173 240 208 222 228 206 212 242 210 212 148 204 215 236 223 238 250 270 247 275 271 246 261 256 262 10 10 10 18 77
169 174 92 107 247 245 238 42 148 41 307 209 212 255 179 171 198 214 186 137 139 225 257 294 263 184 117 194 218 254 304 212 229 260 249 252 238 265 279 3 315 334 10 9 4
208 191 111 271 274 226 226 97 139 103 290 256 179 175 186 169 244 189 176 129 176 141 239 268 248 157 181 209 210 187 235 235 289 265 265 258 251 52 85 333 325 348 359 350 351
261 180 150 294 212 240 183 114 40 79 157 212 271 269 210 177 205 207 192 31 62 312 235 221 285 259 251 98 290 276 268 250 227 229 237 277 285 104 75 359 354 4 14 356 339
209 98 180 278 218 170 135 152 272 206 97 181 192 260 167 196 227 243 197 96 9 273 332 164 251 276 236 187 199 229 225 244 254 272 274 246 240 145 122 67 28 17 12 7 346
237 173 150 204 335 280 170 142 156 119 122 311 254 209 192 210 206 220 219 146 177 341 337 224 267 276 289 344 349 239 231 236 251 240 238 221 260 175 187 331 8 6 9 6 9
338 71 2 166 171 184 252 156 190 164 147 200 148 182 237 238 234 235 236 244 193 145 225 265 269 283 284 282 284 285 271 219 233 251 272 265 234 252 338 318 350 343 1 11 17
333 278 176 137 154 238 154 185 240 174 271 157 249 159 261 259 292 292 285 245 283 206 255 247 275 279 272 274 256 265 258 254 253 253 259 264 278 274 288 286 314 349 350 353 6
43 47 284 144 206 237 213 228 218 276 200 282 322 307 261 8 340 309 291 289 277 275 283 289 281 272 263 274 270 259 250 248 246 254 249 251 256 267 258 282 333 328 324 335 343